Location: Unspecified
(0.0000°N, 0.0000°E)
Time: 17:52:27
(UTC+00:00)

STARLINK 1039 - Pass Details

Date: 20 January 2020
Orbit: 549 x 551 km, 53.0° (Epoch: 23 January)

Event Time Altitude Azimuth Distance (km) Brightness Sun altitude
Rises 04:29:21 0° 181° (S) 2,736 7.4 -23.7°
Reaches altitude 10° 04:32:44 10° 153° (SSE) 1,835 6.9 -22.9°
Maximum altitude 04:34:39 13° 125° (SE) 1,654 7.0 -22.5°
Drops below altitude 10° 04:36:33 10° 98° (E) 1,828 7.3 -22.0°
Sets 04:39:54 0° 69° (ENE) 2,715 7.9 -21.3°
